Location: Paderno d�Adda
(45.6667°N, 9.4333°E)
Time: 05:27:03
(UTC+00:00)

Cosmos 1125 Rocket - Pass Details

Date: 26 January 2021
Orbit: 757 x 781 km, 74.0° (Epoch: 05 March)

Event Time Altitude Azimuth Distance (km) Brightness Sun altitude
Rises 18:34:01 0° 178° (S) 3,206 6.7 -23.3°
Reaches altitude 10° 18:36:29 10° 171° (S) 2,289 5.9 -23.8°
Enters shadow 18:37:53 18° 163° (SSE) 1,808 5.3 -24.0°
